,,,PA_Meas_PMT16A,,PR_Meas_QMR101_102,,RH_Meas_QMH101,,SR_Meas_QMS101,,TA_Meas_QMH101,,GenWind,,GenWind,
date,time,status,PA,status,PR,status,RH,status,SR,status,TA,status,DirAvg,status,SpdAvg,
2011-02-20, 00:00:04,VALID,1010.7,VALID,0,VALID,104,VALID,0,VALID,23.7312,VALID,354,VALID,0.0582031,
2011-02-20, 00:01:04,VALID,1010.7,VALID,0,VALID,104,VALID,0,VALID,23.7312,VALID,332,VALID,0.276172,
2011-02-20, 00:02:04,VALID,1010.69,VALID,0,VALID,104,VALID,0,VALID,23.7312,VALID,332,VALID,0,
2011-02-20, 00:03:04,VALID,1010.65,VALID,0,VALID,104,VALID,0,VALID,23.7312,VALID,329,VALID,0.0183594,
2011-02-20, 00:04:04,VALID,1010.66,VALID,0,VALID,104,VALID,0,VALID,23.7117,VALID,32,VALID,0.199609,
2011-02-20, 00:05:04,VALID,1010.66,VALID,0,VALID,104,VALID,0.105969,VALID,23.7117,VALID,27,VALID,0.148828,
2011-02-20, 00:06:04,VALID,1010.64,VALID,0,VALID,104,VALID,0,VALID,23.6922,VALID,350,VALID,0.696094,
2011-02-20, 00:07:04,VALID,1010.59,VALID,0,VALID,104,VALID,0.105969,VALID,23.7117,VALID,27,VALID,0.851953,
2011-02-20, 00:08:04,VALID,1010.57,VALID,0,VALID,104,VALID,0,VALID,23.7117,VALID,34,VALID,0.271875,
2011-02-20, 00:09:04,VALID,1010.58,VALID,0,VALID,104,VALID,0.105969,VALID,23.7117,VALID,38,VALID,0.310937,
2011-02-20, 00:10:04,VALID,1010.58,VALID,0,VALID,104,VALID,0.105969,VALID,23.6922,VALID,11,VALID,0.735937,
2011-02-20, 00:11:04,VALID,1010.54,VALID,0,VALID,104,VALID,0,VALID,23.6922,VALID,20,VALID,0.226953,
2011-02-20, 00:12:04,VALID,1010.48,VALID,0,VALID,104,VALID,0,VALID,23.6922,VALID,20,VALID,0,
2011-02-20, 00:13:04,VALID,1010.47,VALID,0,VALID,104,VALID,0,VALID,23.694,VALID,28,VALID,0.194141,
2011-02-20, 00:14:04,VALID,1010.43,VALID,0,VALID,104,VALID,0.105969,VALID,23.6727,VALID,17,VALID,0.257813,
2011-02-20, 00:15:04,VALID,1010.42,VALID,0,VALID,104,VALID,0,VALID,23.6922,VALID,330,VALID,0.362109,
2011-02-20, 00:16:04,VALID,1010.37,VALID,0,VALID,104,VALID,0,VALID,23.6727,VALID,330,VALID,0,
2011-02-20, 00:17:04,VALID,1010.35,VALID,0,VALID,104,VALID,0.105969,VALID,23.6532,VALID,32,VALID,0.591016,
2011-02-20, 00:18:04,VALID,1010.32,VALID,0,VALID,104,VALID,0,VALID,23.6745,VALID,32,VALID,0.339844,
2011-02-20, 00:19:04,VALID,1010.27,VALID,0,VALID,104,VALID,0,VALID,23.6745,VALID,340,VALID,0.607813,
2011-02-20, 00:20:04,VALID,1010.23,VALID,0,VALID,104,VALID,0.105969,VALID,23.6532,VALID,30,VALID,0.593359,
2011-02-20, 00:21:04,VALID,1010.2,VALID,0,VALID,104,VALID,0,VALID,23.655,VALID,28,VALID,0.833594,
2011-02-20, 00:22:04,VALID,1010.18,VALID,0,VALID,104,VALID,0,VALID,23.6356,VALID,27,VALID,0.185547,
2011-02-20, 00:23:04,VALID,1010.12,VALID,0,VALID,104,VALID,0,VALID,23.6143,VALID,27,VALID,0.306641,
2011-02-20, 00:24:04,VALID,1010.08,VALID,0,VALID,104,VALID,0,VALID,23.6161,VALID,31,VALID,0.352344,
2011-02-20, 00:25:04,VALID,1010.06,VALID,0,VALID,104,VALID,0.105969,VALID,23.6143,VALID,27,VALID,0,
2011-02-20, 00:26:04,VALID,1010.05,VALID,0,VALID,104,VALID,0,VALID,23.5948,VALID,27,VALID,0.372656,
2011-02-20, 00:27:04,VALID,1010.04,VALID,0,VALID,104,VALID,0.105969,VALID,23.5948,VALID,27,VALID,0,
2011-02-20, 00:28:04,VALID,1010,VALID,0,VALID,104,VALID,0,VALID,23.5753,VALID,29,VALID,0.482812,
2011-02-20, 00:29:04,VALID,1009.98,VALID,0,VALID,104,VALID,0,VALID,23.5753,VALID,26,VALID,0.00117188,
2011-02-20, 00:30:04,VALID,1010,VALID,0,VALID,104,VALID,0,VALID,23.5966,VALID,17,VALID,0.450391,
2011-02-20, 00:31:04,VALID,1009.99,VALID,0,VALID,104,VALID,0.105969,VALID,23.5966,VALID,17,VALID,0,
2011-02-20, 00:32:04,VALID,1009.99,VALID,0,VALID,104,VALID,0,VALID,23.5771,VALID,17,VALID,0.00195313,
2011-02-20, 00:33:04,VALID,1009.98,VALID,0,VALID,104,VALID,0.105969,VALID,23.5771,VALID,17,VALID,0,
2011-02-20, 00:34:04,VALID,1009.95,VALID,0,VALID,104,VALID,0,VALID,23.5558,VALID,17,VALID,0.279687,
2011-02-20, 00:35:04,VALID,1009.97,VALID,0,VALID,104,VALID,0,VALID,23.5771,VALID,350,VALID,0.174609,
2011-02-20, 00:36:04,VALID,1009.97,VALID,0,VALID,104,VALID,0,VALID,23.5363,VALID,352,VALID,0.154687,
2011-02-20, 00:37:04,VALID,1009.96,VALID,0,VALID,104,VALID,0,VALID,23.5363,VALID,82,VALID,0.7625,
2011-02-20, 00:38:04,VALID,1009.94,VALID,0,VALID,104,VALID,0.105969,VALID,23.5363,VALID,60,VALID,0.551172,
2011-02-20, 00:39:04,VALID,1009.93,VALID,0,VALID,104,VALID,0.105969,VALID,23.5381,VALID,72,VALID,0.657812,
2011-02-20, 00:40:04,VALID,1009.93,VALID,0,VALID,104,VALID,0,VALID,23.5381,VALID,73,VALID,0.296875,
2011-02-20, 00:41:04,VALID,1009.89,VALID,0,VALID,104,VALID,0.105969,VALID,23.5363,VALID,73,VALID,0.0316406,
2011-02-20, 00:42:04,VALID,1009.88,VALID,0,VALID,104,VALID,0.105969,VALID,23.5771,VALID,73,VALID,0.140234,
2011-02-20, 00:43:04,VALID,1009.89,VALID,0,VALID,104,VALID,0,VALID,23.5363,VALID,73,VALID,0.0378906,
2011-02-20, 00:44:04,VALID,1009.88,VALID,0,VALID,104,VALID,0.105969,VALID,23.5363,VALID,73,VALID,0,
2011-02-20, 00:45:04,VALID,1009.89,VALID,0,VALID,104,VALID,0,VALID,23.5381,VALID,73,VALID,0,
2011-02-20, 00:46:04,VALID,1009.86,VALID,0,VALID,104,VALID,0,VALID,23.5381,VALID,73,VALID,0,
2011-02-20, 00:47:04,VALID,1009.86,VALID,0,VALID,104,VALID,0,VALID,23.5381,VALID,73,VALID,0,
2011-02-20, 00:48:04,VALID,1009.88,VALID,0,VALID,104,VALID,0,VALID,23.5381,VALID,73,VALID,0,
2011-02-20, 00:49:04,VALID,1009.87,VALID,0,VALID,104,VALID,0,VALID,23.5186,VALID,73,VALID,0,
2011-02-20, 00:50:04,VALID,1009.9,VALID,0,VALID,104,VALID,0,VALID,23.5399,VALID,73,VALID,0,
2011-02-20, 00:51:04,VALID,1009.9,VALID,0,VALID,104,VALID,0,VALID,23.4992,VALID,73,VALID,0,
2011-02-20, 00:52:04,VALID,1009.91,VALID,0,VALID,104,VALID,0,VALID,23.4992,VALID,73,VALID,0,
2011-02-20, 00:53:04,VALID,1009.9,VALID,0,VALID,104,VALID,0,VALID,23.4992,VALID,73,VALID,0,
2011-02-20, 00:54:04,VALID,1009.92,VALID,0,VALID,104,VALID,0,VALID,23.4992,VALID,73,VALID,0,
2011-02-20, 00:55:04,VALID,1009.89,VALID,0,VALID,104,VALID,0,VALID,23.5186,VALID,73,VALID,0,
2011-02-20, 00:56:04,VALID,1009.88,VALID,0,VALID,104,VALID,0,VALID,23.4992,VALID,73,VALID,0,
2011-02-20, 00:57:04,VALID,1009.88,VALID,0,VALID,104,VALID,0,VALID,23.4992,VALID,73,VALID,0,
2011-02-20, 00:58:04,VALID,1009.86,VALID,0,VALID,104,VALID,0,VALID,23.5381,VALID,73,VALID,0,
2011-02-20, 00:59:04,VALID,1009.86,VALID,0,VALID,104,VALID,0,VALID,23.5381,VALID,73,VALID,0,
2011-02-20, 01:00:04,VALID,1009.84,VALID,0,VALID,104,VALID,0,VALID,23.5169,VALID,73,VALID,0,
2011-02-20, 01:01:04,VALID,1009.86,VALID,0,VALID,104,VALID,0,VALID,23.5594,VALID,73,VALID,0.502734,
2011-02-20, 01:02:04,VALID,1009.86,VALID,0,VALID,104,VALID,0,VALID,23.5576,VALID,73,VALID,0.312891,
2011-02-20, 01:03:04,VALID,1009.85,VALID,0,VALID,104,VALID,0,VALID,23.5576,VALID,73,VALID,0.335547,
2011-02-20, 01:04:04,VALID,1009.9,VALID,0,VALID,104,VALID,0,VALID,23.5169,VALID,73,VALID,0.4375,
2011-02-20, 01:05:04,VALID,1009.84,VALID,0,VALID,104,VALID,0.105969,VALID,23.5576,VALID,73,VALID,0.540625,
2011-02-20, 01:06:04,VALID,1009.86,VALID,0,VALID,104,VALID,0,VALID,23.5186,VALID,73,VALID,0.615625,
2011-02-20, 01:07:04,VALID,1009.85,VALID,0,VALID,104,VALID,0,VALID,23.4974,VALID,77,VALID,0.521875,
2011-02-20, 01:08:04,VALID,1009.86,VALID,0,VALID,104,VALID,0,VALID,23.4974,VALID,77,VALID,0.425781,
2011-02-20, 01:09:04,VALID,1009.88,VALID,0,VALID,104,VALID,0,VALID,23.5381,VALID,77,VALID,0.333203,
2011-02-20, 01:10:04,VALID,1009.83,VALID,0,VALID,104,VALID,0,VALID,23.5169,VALID,77,VALID,0.433594,
2011-02-20, 01:11:04,VALID,1009.83,VALID,0,VALID,104,VALID,0,VALID,23.5381,VALID,77,VALID,0.404297,
2011-02-20, 01:12:04,VALID,1009.78,VALID,0,VALID,104,VALID,0,VALID,23.5576,VALID,77,VALID,0.482812,
2011-02-20, 01:13:04,VALID,1009.77,VALID,0,VALID,104,VALID,0,VALID,23.5576,VALID,77,VALID,0.376563,
2011-02-20, 01:14:04,VALID,1009.78,VALID,0,VALID,104,VALID,0,VALID,23.5576,VALID,77,VALID,0.482031,
2011-02-20, 01:15:04,VALID,1009.76,VALID,0,VALID,104,VALID,0,VALID,23.5576,VALID,77,VALID,0.197266,
2011-02-20, 01:16:04,VALID,1009.74,VALID,0,VALID,104,VALID,0,VALID,23.5576,VALID,77,VALID,0.0191406,
2011-02-20, 01:17:04,VALID,1009.74,VALID,0,VALID,104,VALID,0,VALID,23.5771,VALID,77,VALID,0.401563,
2011-02-20, 01:18:04,VALID,1009.74,VALID,0,VALID,104,VALID,0,VALID,23.5576,VALID,77,VALID,0.477734,
2011-02-20, 01:19:04,VALID,1009.73,VALID,0,VALID,104,VALID,0,VALID,23.5771,VALID,77,VALID,0.314453,
2011-02-20, 01:20:04,VALID,1009.71,VALID,0,VALID,104,VALID,0,VALID,23.5771,VALID,77,VALID,0.448047,
2011-02-20, 01:21:04,VALID,1009.69,VALID,0,VALID,104,VALID,0,VALID,23.5771,VALID,77,VALID,0.388281,
2011-02-20, 01:22:04,VALID,1009.68,VALID,0,VALID,104,VALID,0,VALID,23.5771,VALID,77,VALID,0.115625,
2011-02-20, 01:23:04,VALID,1009.66,VALID,0,VALID,104,VALID,0,VALID,23.5771,VALID,77,VALID,0.639063,
2011-02-20, 01:24:04,VALID,1009.66,VALID,0,VALID,104,VALID,0,VALID,23.5363,VALID,110,VALID,0.822656,
2011-02-20, 01:25:04,VALID,1009.63,VALID,0,VALID,104,VALID,0,VALID,23.5771,VALID,110,VALID,0.974609,
2011-02-20, 01:26:04,VALID,1009.6,VALID,0,VALID,104,VALID,0,VALID,23.5576,VALID,113,VALID,0.8375,
2011-02-20, 01:27:04,VALID,1009.59,VALID,0,VALID,104,VALID,0,VALID,23.5576,VALID,113,VALID,0.919922,
2011-02-20, 01:28:04,VALID,1009.55,VALID,0,VALID,104,VALID,0,VALID,23.5381,VALID,113,VALID,0.457031,
2011-02-20, 01:29:04,VALID,1009.53,VALID,0,VALID,104,VALID,0,VALID,23.5381,VALID,113,VALID,0.776953,
2011-02-20, 01:30:04,VALID,1009.53,VALID,0,VALID,104,VALID,0,VALID,23.5186,VALID,113,VALID,0.300391,
2011-02-20, 01:31:04,VALID,1009.52,VALID,0,VALID,104,VALID,0,VALID,23.5381,VALID,113,VALID,0.449219,
2011-02-20, 01:32:04,VALID,1009.48,VALID,0,VALID,104,VALID,0,VALID,23.5186,VALID,113,VALID,0,
2011-02-20, 01:33:04,VALID,1009.47,VALID,0,VALID,104,VALID,0,VALID,23.5186,VALID,113,VALID,0,
2011-02-20, 01:34:04,VALID,1009.41,VALID,0,VALID,104,VALID,0,VALID,23.5186,VALID,113,VALID,0.172266,
2011-02-20, 01:35:04,VALID,1009.39,VALID,0,VALID,104,VALID,0,VALID,23.4797,VALID,100,VALID,0.570313,
2011-02-20, 01:36:04,VALID,1009.33,VALID,0,VALID,104,VALID,0,VALID,23.4797,VALID,74,VALID,0.500781,
2011-02-20, 01:37:04,VALID,1009.3,VALID,0,VALID,104,VALID,0,VALID,23.4407,VALID,74,VALID,0.403906,
2011-02-20, 01:38:04,VALID,1009.28,VALID,0,VALID,104,VALID,0,VALID,23.4212,VALID,74,VALID,0.483203,
2011-02-20, 01:39:04,VALID,1009.25,VALID,0,VALID,104,VALID,0,VALID,23.4017,VALID,74,VALID,0.308984,
2011-02-20, 01:40:04,VALID,1009.2,VALID,0,VALID,104,VALID,0.105969,VALID,23.3823,VALID,74,VALID,0.280469,
2011-02-20, 01:41:04,VALID,1009.17,VALID,0,VALID,104,VALID,0,VALID,23.4035,VALID,345,VALID,0.660547,
2011-02-20, 01:42:04,VALID,1009.14,VALID,0,VALID,104,VALID,0,VALID,23.3823,VALID,321,VALID,0.717969,
2011-02-20, 01:43:04,VALID,1009.13,VALID,0,VALID,104,VALID,0,VALID,23.3823,VALID,320,VALID,0.700391,
2011-02-20, 01:44:04,VALID,1009.08,VALID,0,VALID,104,VALID,0,VALID,23.4017,VALID,320,VALID,0.300391,
2011-02-20, 01:45:04,VALID,1009.07,VALID,0,VALID,104,VALID,0,VALID,23.3823,VALID,320,VALID,0.764844,
2011-02-20, 01:46:04,VALID,1009.07,VALID,0,VALID,104,VALID,0,VALID,23.4035,VALID,320,VALID,0.394141,
2011-02-20, 01:47:04,VALID,1009.02,VALID,0,VALID,104,VALID,0,VALID,23.3823,VALID,343,VALID,0.872656,
2011-02-20, 01:48:04,VALID,1009.05,VALID,0,VALID,104,VALID,0,VALID,23.3628,VALID,347,VALID,0.369531,
2011-02-20, 01:49:04,VALID,1009.04,VALID,0,VALID,104,VALID,0,VALID,23.3433,VALID,347,VALID,0,
2011-02-20, 01:50:04,VALID,1009.05,VALID,0,VALID,104,VALID,0,VALID,23.3433,VALID,347,VALID,0.230859,
2011-02-20, 01:51:04,VALID,1009.07,VALID,0,VALID,104,VALID,0,VALID,23.3238,VALID,347,VALID,0,
2011-02-20, 01:52:04,VALID,1009.09,VALID,0,VALID,104,VALID,0,VALID,23.3238,VALID,347,VALID,0,
2011-02-20, 01:53:04,VALID,1009.1,VALID,0,VALID,104,VALID,0,VALID,23.2831,VALID,347,VALID,0.409375,
2011-02-20, 01:54:04,VALID,1009.12,VALID,0,VALID,104,VALID,0,VALID,23.3043,VALID,7,VALID,0.658203,
2011-02-20, 01:55:04,VALID,1009.11,VALID,0,VALID,104,VALID,0,VALID,23.3043,VALID,9,VALID,0.355078,
2011-02-20, 01:56:04,VALID,1009.15,VALID,0,VALID,104,VALID,0,VALID,23.3238,VALID,9,VALID,0.339844,
2011-02-20, 01:57:04,VALID,1009.14,VALID,0,VALID,104,VALID,0,VALID,23.3026,VALID,9,VALID,0.0078125,
2011-02-20, 01:58:04,VALID,1009.12,VALID,0,VALID,104,VALID,0,VALID,23.3043,VALID,9,VALID,0,
2011-02-20, 01:59:04,VALID,1009.12,VALID,0,VALID,104,VALID,0.105969,VALID,23.3043,VALID,9,VALID,0,
2011-02-20, 02:00:04,VALID,1009.11,VALID,0,VALID,104,VALID,0,VALID,23.3061,VALID,9,VALID,0,
2011-02-20, 02:01:04,VALID,1009.1,VALID,0,VALID,104,VALID,0,VALID,23.3043,VALID,9,VALID,0,
2011-02-20, 02:02:04,VALID,1009.07,VALID,0,VALID,104,VALID,0,VALID,23.3061,VALID,9,VALID,0,
2011-02-20, 02:03:04,VALID,1009.07,VALID,0,VALID,104,VALID,0,VALID,23.3061,VALID,9,VALID,0,
2011-02-20, 02:04:04,VALID,1009.03,VALID,0,VALID,104,VALID,0,VALID,23.2848,VALID,9,VALID,0,
2011-02-20, 02:05:04,VALID,1009.01,VALID,0,VALID,104,VALID,0,VALID,23.3256,VALID,9,VALID,0,
2011-02-20, 02:06:04,VALID,1009.02,VALID,0,VALID,104,VALID,0,VALID,23.3043,VALID,9,VALID,0,
2011-02-20, 02:07:04,VALID,1009,VALID,0,VALID,104,VALID,0,VALID,23.3451,VALID,9,VALID,0,
2011-02-20, 02:08:04,VALID,1009,VALID,0,VALID,104,VALID,0,VALID,23.3256,VALID,9,VALID,0,
2011-02-20, 02:09:04,VALID,1008.97,VALID,0,VALID,104,VALID,0,VALID,23.3256,VALID,9,VALID,0,
2011-02-20, 02:10:04,VALID,1008.96,VALID,0,VALID,104,VALID,0,VALID,23.3061,VALID,9,VALID,0,
2011-02-20, 02:11:04,VALID,1008.96,VALID,0,VALID,104,VALID,0,VALID,23.2848,VALID,9,VALID,0,
2011-02-20, 02:12:04,VALID,1008.92,VALID,0,VALID,104,VALID,0,VALID,23.2848,VALID,9,VALID,0,
2011-02-20, 02:13:04,VALID,1008.92,VALID,0,VALID,104,VALID,0,VALID,23.2654,VALID,9,VALID,0,
2011-02-20, 02:14:04,VALID,1008.92,VALID,0,VALID,104,VALID,0,VALID,23.2654,VALID,9,VALID,0,
2011-02-20, 02:15:04,VALID,1008.91,VALID,0,VALID,104,VALID,0,VALID,23.2441,VALID,9,VALID,0,
2011-02-20, 02:16:04,VALID,1008.89,VALID,0,VALID,104,VALID,0.105969,VALID,23.2459,VALID,9,VALID,0,
2011-02-20, 02:17:04,VALID,1008.91,VALID,0,VALID,104,VALID,0,VALID,23.2264,VALID,9,VALID,0,
2011-02-20, 02:18:04,VALID,1008.89,VALID,0,VALID,104,VALID,0.105969,VALID,23.2264,VALID,9,VALID,0,
2011-02-20, 02:19:04,VALID,1008.87,VALID,0,VALID,104,VALID,0.105969,VALID,23.2051,VALID,9,VALID,0,
2011-02-20, 02:20:04,VALID,1008.86,VALID,0,VALID,104,VALID,0.105969,VALID,23.1857,VALID,9,VALID,0,
2011-02-20, 02:21:04,VALID,1008.85,VALID,0,VALID,104,VALID,0,VALID,23.1874,VALID,9,VALID,0,
2011-02-20, 02:22:04,VALID,1008.83,VALID,0,VALID,104,VALID,0,VALID,23.1679,VALID,9,VALID,0,
2011-02-20, 02:23:04,VALID,1008.82,VALID,0,VALID,104,VALID,0.105969,VALID,23.1467,VALID,9,VALID,0,
2011-02-20, 02:24:04,VALID,1008.8,VALID,0,VALID,104,VALID,0,VALID,23.1467,VALID,9,VALID,0,
2011-02-20, 02:25:04,VALID,1008.76,VALID,0,VALID,104,VALID,0,VALID,23.1485,VALID,9,VALID,0,
2011-02-20, 02:26:04,VALID,1008.73,VALID,0,VALID,104,VALID,0.105969,VALID,23.1272,VALID,9,VALID,0,
2011-02-20, 02:27:04,VALID,1008.7,VALID,0,VALID,104,VALID,0,VALID,23.1272,VALID,9,VALID,0,
2011-02-20, 02:28:04,VALID,1008.71,VALID,0,VALID,104,VALID,0,VALID,23.129,VALID,9,VALID,0,
2011-02-20, 02:29:04,VALID,1008.71,VALID,0,VALID,104,VALID,0,VALID,23.1485,VALID,9,VALID,0,
2011-02-20, 02:30:04,VALID,1008.71,VALID,0,VALID,104,VALID,0,VALID,23.129,VALID,9,VALID,0,
2011-02-20, 02:31:04,VALID,1008.71,VALID,0,VALID,104,VALID,0,VALID,23.129,VALID,9,VALID,0,
2011-02-20, 02:32:04,VALID,1008.71,VALID,0,VALID,104,VALID,0,VALID,23.1307,VALID,9,VALID,0,
2011-02-20, 02:33:04,VALID,1008.71,VALID,0,VALID,104,VALID,0,VALID,23.1307,VALID,9,VALID,0,
2011-02-20, 02:34:04,VALID,1008.72,VALID,0,VALID,104,VALID,0,VALID,23.1095,VALID,9,VALID,0,
2011-02-20, 02:35:04,VALID,1008.73,VALID,0,VALID,104,VALID,0,VALID,23.1095,VALID,9,VALID,0,
2011-02-20, 02:36:04,VALID,1008.74,VALID,0,VALID,104,VALID,0,VALID,23.09,VALID,9,VALID,0,
2011-02-20, 02:37:04,VALID,1008.75,VALID,0,VALID,104,VALID,0,VALID,23.09,VALID,9,VALID,0,
2011-02-20, 02:38:04,VALID,1008.76,VALID,0,VALID,104,VALID,0,VALID,23.0705,VALID,9,VALID,0,
2011-02-20, 02:39:04,VALID,1008.75,VALID,0,VALID,104,VALID,0,VALID,23.09,VALID,9,VALID,0,
2011-02-20, 02:40:04,VALID,1008.74,VALID,0,VALID,104,VALID,0,VALID,23.09,VALID,9,VALID,0,
2011-02-20, 02:41:04,VALID,1008.75,VALID,0,VALID,104,VALID,0,VALID,23.0705,VALID,9,VALID,0,
2011-02-20, 02:42:04,VALID,1008.77,VALID,0,VALID,104,VALID,0,VALID,23.09,VALID,9,VALID,0,
2011-02-20, 02:43:04,VALID,1008.75,VALID,0,VALID,104,VALID,0,VALID,23.09,VALID,9,VALID,0,
2011-02-20, 02:44:04,VALID,1008.75,VALID,0,VALID,104,VALID,0,VALID,23.09,VALID,9,VALID,0,
2011-02-20, 02:45:04,VALID,1008.74,VALID,0,VALID,104,VALID,0.105969,VALID,23.1077,VALID,9,VALID,0,
2011-02-20, 02:46:04,VALID,1008.72,VALID,0,VALID,104,VALID,0,VALID,23.1095,VALID,9,VALID,0,
2011-02-20, 02:47:04,VALID,1008.71,VALID,0,VALID,104,VALID,0.105969,VALID,23.129,VALID,9,VALID,0,
2011-02-20, 02:48:04,VALID,1008.68,VALID,0,VALID,104,VALID,0.105969,VALID,23.1077,VALID,9,VALID,0,
2011-02-20, 02:49:04,VALID,1008.66,VALID,0,VALID,104,VALID,0.105969,VALID,23.1095,VALID,9,VALID,0,
2011-02-20, 02:50:04,VALID,1008.63,VALID,0,VALID,104,VALID,0.105969,VALID,23.1077,VALID,9,VALID,0,
2011-02-20, 02:51:04,VALID,1008.64,VALID,0,VALID,104,VALID,0.105969,VALID,23.09,VALID,9,VALID,0,
2011-02-20, 02:52:04,VALID,1008.61,VALID,0,VALID,104,VALID,0.105969,VALID,23.0688,VALID,9,VALID,0,
2011-02-20, 02:53:04,VALID,1008.61,VALID,0,VALID,104,VALID,0,VALID,23.0493,VALID,9,VALID,0,
2011-02-20, 02:54:04,VALID,1008.57,VALID,0,VALID,104,VALID,0.105969,VALID,23.0493,VALID,9,VALID,0,
2011-02-20, 02:55:04,VALID,1008.55,VALID,0,VALID,104,VALID,0.105969,VALID,23.0298,VALID,9,VALID,0,
2011-02-20, 02:56:04,VALID,1008.53,VALID,0,VALID,104,VALID,0.105969,VALID,23.0511,VALID,9,VALID,0,
2011-02-20, 02:57:04,VALID,1008.54,VALID,0,VALID,104,VALID,0.105969,VALID,23.0103,VALID,9,VALID,0,
2011-02-20, 02:58:04,VALID,1008.54,VALID,0,VALID,104,VALID,0.105969,VALID,23.0103,VALID,9,VALID,0,
2011-02-20, 02:59:04,VALID,1008.53,VALID,0,VALID,104,VALID,0.105969,VALID,22.9909,VALID,9,VALID,0,
2011-02-20, 03:00:04,VALID,1008.52,VALID,0,VALID,104,VALID,0,VALID,23.0121,VALID,9,VALID,0,
2011-02-20, 03:01:04,VALID,1008.53,VALID,0,VALID,104,VALID,0,VALID,23.0121,VALID,9,VALID,0,
2011-02-20, 03:02:04,VALID,1008.54,VALID,0,VALID,104,VALID,0,VALID,23.0138,VALID,9,VALID,0,
2011-02-20, 03:03:04,VALID,1008.55,VALID,0,VALID,104,VALID,0,VALID,22.9926,VALID,9,VALID,0,
2011-02-20, 03:04:04,VALID,1008.55,VALID,0,VALID,104,VALID,0,VALID,22.9926,VALID,9,VALID,0,
2011-02-20, 03:05:04,VALID,1008.54,VALID,0,VALID,104,VALID,0,VALID,22.9926,VALID,9,VALID,0,
2011-02-20, 03:06:04,VALID,1008.57,VALID,0,VALID,104,VALID,0,VALID,22.9731,VALID,9,VALID,0,
2011-02-20, 03:07:04,VALID,1008.59,VALID,0,VALID,104,VALID,0,VALID,22.9731,VALID,9,VALID,0,
2011-02-20, 03:08:04,VALID,1008.6,VALID,0,VALID,104,VALID,0,VALID,22.9536,VALID,9,VALID,0,
2011-02-20, 03:09:04,VALID,1008.63,VALID,0,VALID,104,VALID,0,VALID,22.9536,VALID,9,VALID,0,
2011-02-20, 03:10:04,VALID,1008.64,VALID,0,VALID,104,VALID,0,VALID,22.9943,VALID,9,VALID,0,
2011-02-20, 03:11:04,VALID,1008.65,VALID,0,VALID,104,VALID,0,VALID,22.9731,VALID,9,VALID,0.256641,
2011-02-20, 03:12:04,VALID,1008.64,VALID,0,VALID,104,VALID,0,VALID,22.9731,VALID,9,VALID,0.191797,
2011-02-20, 03:13:04,VALID,1008.65,VALID,0,VALID,104,VALID,0,VALID,22.9749,VALID,9,VALID,0,
2011-02-20, 03:14:04,VALID,1008.64,VALID,0,VALID,104,VALID,0,VALID,22.9536,VALID,9,VALID,0.183203,
2011-02-20, 03:15:04,VALID,1008.69,VALID,0,VALID,104,VALID,0,VALID,22.9536,VALID,9,VALID,0.0195313,
2011-02-20, 03:16:04,VALID,1008.68,VALID,0,VALID,104,VALID,0,VALID,22.9536,VALID,9,VALID,0,
2011-02-20, 03:17:04,VALID,1008.68,VALID,0,VALID,104,VALID,0,VALID,22.9536,VALID,9,VALID,0,
2011-02-20, 03:18:04,VALID,1008.7,VALID,0,VALID,104,VALID,0,VALID,22.9536,VALID,9,VALID,0.188672,
2011-02-20, 03:19:04,VALID,1008.71,VALID,0,VALID,104,VALID,0,VALID,22.9749,VALID,9,VALID,0.305859,
2011-02-20, 03:20:04,VALID,1008.68,VALID,0,VALID,104,VALID,0,VALID,22.9536,VALID,9,VALID,0.330078,
2011-02-20, 03:21:04,VALID,1008.71,VALID,0,VALID,104,VALID,0,VALID,22.9749,VALID,9,VALID,0.183594,
2011-02-20, 03:22:04,VALID,1008.71,VALID,0,VALID,104,VALID,0,VALID,22.9731,VALID,9,VALID,0.310937,
2011-02-20, 03:23:04,VALID,1008.72,VALID,0,VALID,104,VALID,0,VALID,22.9536,VALID,9,VALID,0.221094,
2011-02-20, 03:24:04,VALID,1008.72,VALID,0,VALID,104,VALID,0,VALID,22.9536,VALID,9,VALID,0.0394531,
2011-02-20, 03:25:04,VALID,1008.72,VALID,0,VALID,104,VALID,0,VALID,22.9554,VALID,9,VALID,0,
2011-02-20, 03:26:04,VALID,1008.72,VALID,0,VALID,104,VALID,0,VALID,22.9359,VALID,9,VALID,0,
2011-02-20, 03:27:04,VALID,1008.77,VALID,0,VALID,104,VALID,0,VALID,22.9164,VALID,9,VALID,0,
2011-02-20, 03:28:04,VALID,1008.8,VALID,0,VALID,104,VALID,0,VALID,22.8757,VALID,9,VALID,0,
2011-02-20, 03:29:04,VALID,1008.79,VALID,0,VALID,104,VALID,0,VALID,22.8969,VALID,9,VALID,0,
2011-02-20, 03:30:04,VALID,1008.82,VALID,0,VALID,104,VALID,0,VALID,22.8757,VALID,9,VALID,0,
2011-02-20, 03:31:05,VALID,1008.84,VALID,0,VALID,104,VALID,0.105969,VALID,22.8545,VALID,9,VALID,0,
2011-02-20, 03:32:05,VALID,1008.86,VALID,0,VALID,104,VALID,0.105969,VALID,22.8757,VALID,9,VALID,0,
2011-02-20, 03:33:05,VALID,1008.88,VALID,0,VALID,104,VALID,0.105969,VALID,22.874,VALID,9,VALID,0,
2011-02-20, 03:34:05,VALID,1008.91,VALID,0,VALID,104,VALID,0,VALID,22.8562,VALID,9,VALID,0,
2011-02-20, 03:35:05,VALID,1008.94,VALID,0,VALID,104,VALID,0,VALID,22.8155,VALID,9,VALID,0,
2011-02-20, 03:36:05,VALID,1008.98,VALID,0,VALID,104,VALID,0.105969,VALID,22.7961,VALID,9,VALID,0,
2011-02-20, 03:37:05,VALID,1008.95,VALID,0,VALID,104,VALID,0.105969,VALID,22.7766,VALID,9,VALID,0,
2011-02-20, 03:38:05,VALID,1008.96,VALID,0,VALID,104,VALID,0.105969,VALID,22.7978,VALID,9,VALID,0,
2011-02-20, 03:39:05,VALID,1008.98,VALID,0,VALID,104,VALID,0,VALID,22.7961,VALID,9,VALID,0,
2011-02-20, 03:40:05,VALID,1009,VALID,0,VALID,104,VALID,0.105969,VALID,22.7961,VALID,9,VALID,0,
2011-02-20, 03:41:05,VALID,1009.02,VALID,0,VALID,104,VALID,0,VALID,22.7766,VALID,9,VALID,0,
2011-02-20, 03:42:05,VALID,1009.06,VALID,0,VALID,104,VALID,0,VALID,22.7766,VALID,9,VALID,0,
2011-02-20, 03:43:05,VALID,1009.06,VALID,0,VALID,104,VALID,0,VALID,22.7766,VALID,9,VALID,0,
2011-02-20, 03:44:05,VALID,1009.06,VALID,0,VALID,104,VALID,0.105969,VALID,22.7766,VALID,9,VALID,0,
2011-02-20, 03:45:05,VALID,1009.08,VALID,0,VALID,104,VALID,0,VALID,22.7783,VALID,9,VALID,0,
2011-02-20, 03:46:05,VALID,1009.07,VALID,0,VALID,104,VALID,0,VALID,22.819,VALID,9,VALID,0,
2011-02-20, 03:47:05,VALID,1009.09,VALID,0,VALID,104,VALID,0,VALID,22.7783,VALID,9,VALID,0,
2011-02-20, 03:48:05,VALID,1009.08,VALID,0,VALID,104,VALID,0,VALID,22.7995,VALID,9,VALID,0,
2011-02-20, 03:49:05,VALID,1009.09,VALID,0,VALID,104,VALID,0,VALID,22.7978,VALID,9,VALID,0.299609,
2011-02-20, 03:50:05,VALID,1009.1,VALID,0,VALID,104,VALID,0,VALID,22.7978,VALID,9,VALID,0.296875,
2011-02-20, 03:51:05,VALID,1009.12,VALID,0,VALID,104,VALID,0,VALID,22.8385,VALID,9,VALID,0.458203,
2011-02-20, 03:52:05,VALID,1009.15,VALID,0,VALID,104,VALID,0,VALID,22.8173,VALID,9,VALID,0.411719,
2011-02-20, 03:53:05,VALID,1009.17,VALID,0,VALID,104,VALID,0,VALID,22.8385,VALID,9,VALID,0.267578,
2011-02-20, 03:54:05,VALID,1009.17,VALID,0,VALID,104,VALID,0,VALID,22.7978,VALID,9,VALID,0.411328,
2011-02-20, 03:55:05,VALID,1009.19,VALID,0,VALID,104,VALID,0,VALID,22.8173,VALID,9,VALID,0.367969,
2011-02-20, 03:56:05,VALID,1009.19,VALID,0,VALID,104,VALID,0,VALID,22.7978,VALID,9,VALID,0.409766,
2011-02-20, 03:57:05,VALID,1009.19,VALID,0,VALID,104,VALID,0,VALID,22.7783,VALID,9,VALID,0.169531,
2011-02-20, 03:58:05,VALID,1009.2,VALID,0,VALID,104,VALID,0,VALID,22.7978,VALID,9,VALID,0.154297,
2011-02-20, 03:59:05,VALID,1009.21,VALID,0,VALID,104,VALID,0,VALID,22.7978,VALID,9,VALID,0,
2011-02-20, 04:00:05,VALID,1009.21,VALID,0,VALID,104,VALID,0.105969,VALID,22.8368,VALID,9,VALID,0,
2011-02-20, 04:01:05,VALID,1009.21,VALID,0,VALID,104,VALID,0.105969,VALID,22.7961,VALID,9,VALID,0,